STARLINK-1540, 46051

Orbit data source: Space-Track

STARLINK-1540, 46051 is a payload satellite owned by SpaceX/Seattle (US) in LEO that was launched on Fri, 07 Aug 2020 UTC via an FALCON 9 launch vehicle from the Air Force Eastern Test Range (AFETR). Payload-class satellites include a variety of spacecraft equipped with specific instruments for various scientific and technological missions. These include communications satellites like Starlink; space stations such as the ISS; scientific satellites like the Hubble; Earth observation satellites from companies like Planet Labs, Umbra, and HawkEye 360; GPS; miniature CubeSats for education and research; and military/defense satellites.

Loading next visibility...
Identifier
46051, 2020-055AA
Orbit
LEO
Country
Flag of USUS
Related business
Manufacturer
SpaceX/Seattle
Mission
Operational Commercial Communications
Bus & Motor
STARLINK, Unknown motor
Mass
260 kg wet, ~248 kg dry
Launch date (UTC)
2020-08-07 (6 years ago)
Launch vehicle
FALCON 9
Launch site
Air Force Eastern Test Range (AFETR)
Object type
Payload
Rocket body
Debris
Shape & HBR
Box + 1 Pan, 10.1 m
Radar Cross Section
13.562 m², Large (>1 m²)

Expand to show TLE details & history
Last TLE update: 8 hours ago

TLE from 8 hours ago
0 STARLINK-1540
1 46051U 20055AA  26071.29652963 -.00000135  00000-0  75695-5 0  9993
2 46051  53.1613 101.7375 0001159 113.5703 246.5419 15.30191676309481
Epoch: 2026-03-12T07:07Z
TLE epoch observation values (Epoch: 2026-03-12T07:07:00.160Z)
Latitude
-0.00005°
Longitude
-174.96165°
Altitude
476.456 km
Speed
7.629 km/s
True Right ascension
06h 46m 56s
True Declination
0° 00' 00"
Sunlit
Object was in daylight at epoch
Visualization orbit readout
Latitude
Unknown
Longitude
Unknown
Altitude
Unknown
Speed
Unknown
Apparent Right ascension
Unknown
Apparent Declination
Unknown
Sunlit
N/A
Visualization observer readout
Local Sidereal Time
19:55:25
Azimuth
Unknown
Elevation
Unknown
Doppler factor
Unknown
Orbital elements
Apogee altitude
476.29 km
Perigee altitude
474.702 km
Semi-major axis
6,853.633 km
Eccentricity
0.00012
Inclination
53.1613°
RAAN
101.7375°
Arg. of periapsis
113.5703°
True anomaly
246.52972°
Mean anomaly
246.5419°
Eccentric anomaly
246.53581°
Mean motion
3.82527 °/min
Orbital period
94.11 mins
BSTAR
0.0000075695
Loading maneuver chart data...
Computing Atmospheric mass density...
Loading historical data...
Loading historical data...
Loading historical data...
Loading historical data...
Loading historical data...
Loading historical data...
Loading historical data...

Documentation

Showing up to 5 results
|